Terug naar catalogus

STARLINK-30610

ActiefCommunicatieVLEO
NORAD 58082·PAYLOAD·🇺🇸 United States

Gelanceerd Oct 18, 2023 vanaf Cape Canaveral Space Force Station

Loading…

Volgende Passages (komende 24 uur)

TLE

VersSource: CelesTrak SupGP

Epoch: Sep 15, 2026, 02:10 UTC

1 58082C 23160H   26258.09076389  .00005332  00000+0  19306-3 0  2582
2 58082  43.0030  88.6076 0001960 271.2082 249.3409 15.27586005    19

Volg STARLINK-30610 in realtime met AllMySat

Download on the App Store